Location: Unspecified
(0.0000°N, 0.0000°E)
Time: 01:44:13
(UTC+00:00)

Vanguard 1 Rocket - Visible Passes

Search period start: 27 May 2015 00:00
Search period end: 06 June 2015 00:00
Orbit: 655 x 4224 km, 34.3° (Epoch: 24 May)

Date Brightness Start Highest point End Pass type
(mag) Time Alt. Az. Time Alt. Az. Time Alt. Az.
27 May 10.3 01:49:57 10° NW 02:15:21 80° SSW 02:38:26 10° SE visible
27 May 10.7 04:32:53 20° W 04:49:04 36° SSW 05:05:26 10° SSE visible
27 May 10.9 22:11:34 10° NNW 22:25:06 32° NNE 22:27:17 31° NE visible
28 May 10.9 00:37:04 10° NW 01:10:19 46° ESE 01:24:41 10° ESE visible
28 May 10.5 03:27:47 47° WSW 03:33:23 51° SW 03:54:00 10° SE visible
28 May 11.0 21:01:58 10° N 21:10:38 19° NNE 21:18:49 15° ENE visible
28 May 10.6 23:25:22 10° NW 00:04:51 18° ESE 00:09:13 10° ESE visible
29 May 10.5 02:22:17 62° S 02:22:17 62° S 02:41:37 10° SE visible
29 May 10.9 04:39:44 21° WSW 04:53:09 30° SSW 05:08:36 10° SSE visible
29 May 10.6 22:14:38 10° NNW 22:27:47 38° NNE 22:27:47 38° NNE visible
30 May 11.0 00:40:26 10° NW 01:16:28 39° SE 01:28:05 10° SE visible
30 May 10.6 03:33:52 42° SW 03:37:04 43° SSW 03:57:04 10° SSE visible
30 May 10.8 21:04:53 10° NNW 21:14:46 23° NE 21:19:46 22° NE visible
30 May 10.6 23:28:35 10° NW 00:10:25 15° ESE 00:13:04 10° ESE visible
31 May 10.7 02:27:48 50° S 02:27:48 50° S 02:44:41 10° SE visible
31 May 11.0 04:45:11 19° WSW 04:57:33 25° SSW 05:11:54 10° SSE visible
31 May 11.0 19:57:27 10° NNE 20:01:01 12° NNE 20:06:42 10° NE visible
31 May 10.4 22:17:44 10° NNW 22:29:04 44° NNE 22:29:04 44° NNE visible
01 Jun 11.1 00:44:00 10° WNW 01:21:32 33° SE 01:31:16 10° SE visible
01 Jun 10.8 03:38:54 36° SW 03:41:03 36° SSW 04:00:11 10° SSE visible
01 Jun 10.6 21:07:49 10° NNW 21:18:35 29° NE 21:21:17 29° NE visible
01 Jun 10.7 23:31:55 10° NW 00:15:06 13° SE 00:16:34 10° SE visible
02 Jun 10.8 02:32:28 41° S 02:32:28 41° S 02:47:41 10° SE visible
02 Jun 11.1 04:49:49 16° SW 05:02:18 22° SSW 05:15:30 10° SSE visible
02 Jun 10.8 19:59:24 10° N 20:05:17 15° NNE 20:13:35 11° ENE visible
02 Jun 10.2 22:20:54 10° NW 22:30:49 48° N 22:30:49 48° N visible
03 Jun 11.3 00:47:48 10° WNW 01:25:53 28° SE 01:34:18 10° SE visible
03 Jun 10.9 03:43:13 30° SSW 03:45:23 30° SSW 04:03:25 10° SSE visible
03 Jun 10.3 21:10:49 10° NNW 21:22:08 36° NE 21:23:13 36° NE visible
03 Jun 10.8 23:35:24 10° NW 00:19:12 11° SE 00:19:49 10° SE visible
04 Jun 11.0 02:36:32 35° S 02:36:32 35° S 02:50:42 10° SE visible
04 Jun 11.2 04:53:52 13° SW 05:07:20 19° SSW 05:19:33 10° SSE visible
04 Jun 10.6 20:01:53 10° N 20:09:14 20° NE 20:15:40 17° ENE visible
04 Jun 10.1 22:24:11 10° NW 22:32:55 50° NNW 22:32:55 50° NNW visible
05 Jun 11.3 01:29:45 25° SSE 01:29:45 25° SSE 01:37:14 10° SE visible
05 Jun 11.1 03:47:04 26° SSW 03:50:04 26° SSW 04:06:54 10° SSE visible
05 Jun 10.0 21:13:55 10° NNW 21:25:27 45° NE 21:25:27 45° NE visible
